Year,Month,Day,Hour,Minute,Value (Times are PST for temperature in C)
2011,07,22,00,00,12.00
2011,07,22,00,01,12.00
2011,07,22,00,02,12.00
2011,07,22,00,03,12.00
2011,07,22,00,04,12.00
2011,07,22,00,05,11.90
2011,07,22,00,06,11.90
2011,07,22,00,07,11.90
2011,07,22,00,08,11.90
2011,07,22,00,09,11.90
2011,07,22,00,10,11.90
2011,07,22,00,11,11.90
2011,07,22,00,12,11.90
2011,07,22,00,13,11.90
2011,07,22,00,14,11.80
2011,07,22,00,15,11.80
2011,07,22,00,16,11.80
2011,07,22,00,17,11.80
2011,07,22,00,18,11.80
2011,07,22,00,19,11.80
2011,07,22,00,20,11.80
2011,07,22,00,21,11.70
2011,07,22,00,22,11.70
2011,07,22,00,23,11.70
2011,07,22,00,24,11.70
2011,07,22,00,25,11.70
2011,07,22,00,26,11.70
2011,07,22,00,27,11.70
2011,07,22,00,28,11.60
2011,07,22,00,29,11.60
2011,07,22,00,30,11.60
2011,07,22,00,31,11.60
2011,07,22,00,32,11.60
2011,07,22,00,33,11.60
2011,07,22,00,34,11.60
2011,07,22,00,35,11.60
2011,07,22,00,36,11.60
2011,07,22,00,37,11.50
2011,07,22,00,38,11.50
2011,07,22,00,39,11.50
2011,07,22,00,40,11.50
2011,07,22,00,41,11.40
2011,07,22,00,42,11.40
2011,07,22,00,43,11.40
2011,07,22,00,44,11.40
2011,07,22,00,45,11.40
2011,07,22,00,46,11.30
2011,07,22,00,47,11.30
2011,07,22,00,48,11.30
2011,07,22,00,49,11.30
2011,07,22,00,50,11.30
2011,07,22,00,51,11.30
2011,07,22,00,52,11.30
2011,07,22,00,53,11.30
2011,07,22,00,54,11.30
2011,07,22,00,55,11.30
2011,07,22,00,56,11.30
2011,07,22,00,57,11.30
2011,07,22,00,58,11.30
2011,07,22,00,59,11.30
2011,07,22,01,00,11.30
2011,07,22,01,01,11.30
2011,07,22,01,02,11.30
2011,07,22,01,03,11.30
2011,07,22,01,04,11.20
2011,07,22,01,05,11.20
2011,07,22,01,06,11.20
2011,07,22,01,07,11.20
2011,07,22,01,08,11.20
2011,07,22,01,09,11.20
2011,07,22,01,10,11.20
2011,07,22,01,11,11.10
2011,07,22,01,12,11.10
2011,07,22,01,13,11.10
2011,07,22,01,14,11.10
2011,07,22,01,15,11.10
2011,07,22,01,16,11.10
2011,07,22,01,17,11.10
2011,07,22,01,18,11.10
2011,07,22,01,19,11.10
2011,07,22,01,20,11.00
2011,07,22,01,21,11.00
2011,07,22,01,22,11.00
2011,07,22,01,23,11.00
2011,07,22,01,24,11.00
2011,07,22,01,25,10.90
2011,07,22,01,26,10.90
2011,07,22,01,27,10.90
2011,07,22,01,28,10.90
2011,07,22,01,29,10.90
2011,07,22,01,30,10.90
2011,07,22,01,31,10.90
2011,07,22,01,32,10.90
2011,07,22,01,33,10.90
2011,07,22,01,34,10.90
2011,07,22,01,35,10.90
2011,07,22,01,36,10.80
2011,07,22,01,37,10.80
2011,07,22,01,38,10.80
2011,07,22,01,39,10.80
2011,07,22,01,40,10.80
2011,07,22,01,41,10.80
2011,07,22,01,42,10.80
2011,07,22,01,43,10.70
2011,07,22,01,44,10.70
2011,07,22,01,45,10.70
2011,07,22,01,46,10.70
2011,07,22,01,47,10.70
2011,07,22,01,48,10.70
2011,07,22,01,49,10.60
2011,07,22,01,50,10.60
2011,07,22,01,51,10.60
2011,07,22,01,52,10.60
2011,07,22,01,53,10.60
2011,07,22,01,54,10.60
2011,07,22,01,55,10.60
2011,07,22,01,56,10.50
2011,07,22,01,57,10.50
2011,07,22,01,58,10.50
2011,07,22,01,59,10.50
2011,07,22,02,00,10.40
2011,07,22,02,01,10.40
2011,07,22,02,02,10.40
2011,07,22,02,03,10.40
2011,07,22,02,04,10.40
2011,07,22,02,05,10.30
2011,07,22,02,06,10.30
2011,07,22,02,07,10.30
2011,07,22,02,08,10.30
2011,07,22,02,09,10.30
2011,07,22,02,10,10.30
2011,07,22,02,11,10.30
2011,07,22,02,12,10.20
2011,07,22,02,13,10.20
2011,07,22,02,14,10.20
2011,07,22,02,15,10.20
2011,07,22,02,16,10.20
2011,07,22,02,17,10.20
2011,07,22,02,18,10.20
2011,07,22,02,19,10.20
2011,07,22,02,20,10.20
2011,07,22,02,21,10.20
2011,07,22,02,22,10.10
2011,07,22,02,23,10.10
2011,07,22,02,24,10.10
2011,07,22,02,25,10.10
2011,07,22,02,26,10.10
2011,07,22,02,27,10.10
2011,07,22,02,28,10.10
2011,07,22,02,29,10.10
2011,07,22,02,30,10.10
2011,07,22,02,31,10.10
2011,07,22,02,32,10.10
2011,07,22,02,33,10.10
2011,07,22,02,34,10.00
2011,07,22,02,35,10.00
2011,07,22,02,36,10.00
2011,07,22,02,37,10.00
2011,07,22,02,38,10.00
2011,07,22,02,39,10.00
2011,07,22,02,40,10.00
2011,07,22,02,41,10.00
2011,07,22,02,42,9.90
2011,07,22,02,43,9.90
2011,07,22,02,44,9.90
2011,07,22,02,45,9.90
2011,07,22,02,46,9.90
2011,07,22,02,47,9.90
2011,07,22,02,48,9.90
2011,07,22,02,49,9.90
2011,07,22,02,50,9.90
2011,07,22,02,51,9.90
2011,07,22,02,52,9.90
2011,07,22,02,53,9.90
2011,07,22,02,54,9.90
2011,07,22,02,55,9.90
2011,07,22,02,56,9.90
2011,07,22,02,57,9.90
2011,07,22,02,58,9.80
2011,07,22,02,59,9.80
2011,07,22,03,00,9.80
2011,07,22,03,01,9.80
2011,07,22,03,02,9.80
2011,07,22,03,03,9.80
2011,07,22,03,04,9.80
2011,07,22,03,05,9.80
2011,07,22,03,06,9.80
2011,07,22,03,07,9.80
2011,07,22,03,08,9.80
2011,07,22,03,09,9.80
2011,07,22,03,10,9.80
2011,07,22,03,11,9.70
2011,07,22,03,12,9.70
2011,07,22,03,13,9.70
2011,07,22,03,14,9.70
2011,07,22,03,15,9.70
2011,07,22,03,16,9.70
2011,07,22,03,17,9.70
2011,07,22,03,18,9.70
2011,07,22,03,19,9.70
2011,07,22,03,20,9.70
2011,07,22,03,21,9.70
2011,07,22,03,22,9.70
2011,07,22,03,23,9.70
2011,07,22,03,24,9.70
2011,07,22,03,25,9.70
2011,07,22,03,26,9.70
2011,07,22,03,27,9.60
2011,07,22,03,28,9.60
2011,07,22,03,29,9.60
2011,07,22,03,30,9.60
2011,07,22,03,31,9.60
2011,07,22,03,32,9.60
2011,07,22,03,33,9.60
2011,07,22,03,34,9.60
2011,07,22,03,35,9.60
2011,07,22,03,36,9.60
2011,07,22,03,37,9.60
2011,07,22,03,38,9.60
2011,07,22,03,39,9.60
2011,07,22,03,40,9.60
2011,07,22,03,41,9.50
2011,07,22,03,42,9.50
2011,07,22,03,43,9.50
2011,07,22,03,44,9.50
2011,07,22,03,45,9.50
2011,07,22,03,46,9.50
2011,07,22,03,47,9.50
2011,07,22,03,48,9.50
2011,07,22,03,49,9.50
2011,07,22,03,50,9.50
2011,07,22,03,51,9.40
2011,07,22,03,52,9.40
2011,07,22,03,53,9.40
2011,07,22,03,54,9.40
2011,07,22,03,55,9.40
2011,07,22,03,56,9.40
2011,07,22,03,57,9.40
2011,07,22,03,58,9.40
2011,07,22,03,59,9.40
2011,07,22,04,00,9.40
2011,07,22,04,01,9.40
2011,07,22,04,02,9.40
2011,07,22,04,03,9.40
2011,07,22,04,04,9.40
2011,07,22,04,05,9.40
2011,07,22,04,06,9.40
2011,07,22,04,07,9.40
2011,07,22,04,08,9.30
2011,07,22,04,09,9.40
2011,07,22,04,10,9.30
2011,07,22,04,11,9.30
2011,07,22,04,12,9.30
2011,07,22,04,13,9.30
2011,07,22,04,14,9.30
2011,07,22,04,15,9.30
2011,07,22,04,16,9.30
2011,07,22,04,17,9.30
2011,07,22,04,18,9.30
2011,07,22,04,19,9.40
2011,07,22,04,20,9.40
2011,07,22,04,21,9.40
2011,07,22,04,22,9.40
2011,07,22,04,23,9.40
2011,07,22,04,24,9.40
2011,07,22,04,25,9.40
2011,07,22,04,26,9.40
2011,07,22,04,27,9.40
2011,07,22,04,28,9.40
2011,07,22,04,29,9.30
2011,07,22,04,30,9.30
2011,07,22,04,31,9.30
2011,07,22,04,32,9.30
2011,07,22,04,33,9.30
2011,07,22,04,34,9.30
2011,07,22,04,35,9.30
2011,07,22,04,36,9.30
2011,07,22,04,37,9.30
2011,07,22,04,38,9.30
2011,07,22,04,39,9.30
2011,07,22,04,40,9.30
2011,07,22,04,41,9.30
2011,07,22,04,42,9.30
2011,07,22,04,43,9.30
2011,07,22,04,44,9.30
2011,07,22,04,45,9.30
2011,07,22,04,46,9.30
2011,07,22,04,47,9.20
2011,07,22,04,48,9.20
2011,07,22,04,49,9.20
2011,07,22,04,50,9.20
2011,07,22,04,51,9.20
2011,07,22,04,52,9.20
2011,07,22,04,53,9.20
2011,07,22,04,54,9.20
2011,07,22,04,55,9.20
2011,07,22,04,56,9.10
2011,07,22,04,57,9.10
2011,07,22,04,58,9.10
2011,07,22,04,59,9.10
2011,07,22,05,00,9.10
2011,07,22,05,01,9.10
2011,07,22,05,02,9.10
2011,07,22,05,03,9.10
2011,07,22,05,04,9.10
2011,07,22,05,05,9.00
2011,07,22,05,06,9.00
2011,07,22,05,07,9.00
2011,07,22,05,08,9.00
2011,07,22,05,09,9.00
2011,07,22,05,10,8.90
2011,07,22,05,11,8.90
2011,07,22,05,12,8.90
2011,07,22,05,13,8.90
2011,07,22,05,14,8.90
2011,07,22,05,15,8.90
2011,07,22,05,16,8.90
2011,07,22,05,17,8.90
2011,07,22,05,18,8.90
2011,07,22,05,19,8.80
2011,07,22,05,20,8.80
2011,07,22,05,21,8.80
2011,07,22,05,22,8.80
2011,07,22,05,23,8.80
2011,07,22,05,24,8.80
2011,07,22,05,25,8.80
2011,07,22,05,26,8.80
2011,07,22,05,27,8.80
2011,07,22,05,28,8.80
2011,07,22,05,29,8.80
2011,07,22,05,30,8.80
2011,07,22,05,31,8.80
2011,07,22,05,32,8.80
2011,07,22,05,33,8.80
2011,07,22,05,34,8.70
2011,07,22,05,35,8.70
2011,07,22,05,36,8.70
2011,07,22,05,37,8.80
2011,07,22,05,38,8.70
2011,07,22,05,39,8.70
2011,07,22,05,40,8.70
2011,07,22,05,41,8.70
2011,07,22,05,42,8.70
2011,07,22,05,43,8.70
2011,07,22,05,44,8.70
2011,07,22,05,45,8.70
2011,07,22,05,46,8.70
2011,07,22,05,47,8.70
2011,07,22,05,48,8.70
2011,07,22,05,49,8.70
2011,07,22,05,50,8.70
2011,07,22,05,51,8.70
2011,07,22,05,52,8.70
2011,07,22,05,53,8.70
2011,07,22,05,54,8.70
2011,07,22,05,55,8.70
2011,07,22,05,56,8.70
2011,07,22,05,57,8.70
2011,07,22,05,58,8.70
2011,07,22,05,59,8.70
2011,07,22,06,00,8.70
2011,07,22,06,01,8.70
2011,07,22,06,02,8.70
2011,07,22,06,03,8.70
2011,07,22,06,04,8.70
2011,07,22,06,05,8.70
2011,07,22,06,06,8.70
2011,07,22,06,07,8.70
2011,07,22,06,08,8.70
2011,07,22,06,09,8.70
2011,07,22,06,10,8.70
2011,07,22,06,11,8.70
2011,07,22,06,12,8.70
2011,07,22,06,13,8.70
2011,07,22,06,14,8.70
2011,07,22,06,15,8.70
2011,07,22,06,16,8.70
2011,07,22,06,17,8.70
2011,07,22,06,18,8.70
2011,07,22,06,19,8.70
2011,07,22,06,20,8.70
2011,07,22,06,21,8.70
2011,07,22,06,22,8.70
2011,07,22,06,23,8.70
2011,07,22,06,24,8.70
2011,07,22,06,25,8.70
2011,07,22,06,26,8.70
2011,07,22,06,27,8.70
2011,07,22,06,28,8.70
2011,07,22,06,29,8.70
2011,07,22,06,30,8.70
2011,07,22,06,31,8.80
2011,07,22,06,32,8.80
2011,07,22,06,33,8.80
2011,07,22,06,34,8.80
2011,07,22,06,35,8.80
2011,07,22,06,36,8.80
2011,07,22,06,37,8.80
2011,07,22,06,38,8.80
2011,07,22,06,39,8.80
2011,07,22,06,40,8.80
2011,07,22,06,41,8.80
2011,07,22,06,42,8.90
2011,07,22,06,43,8.90
2011,07,22,06,44,8.90
2011,07,22,06,45,8.90
2011,07,22,06,46,8.90
2011,07,22,06,47,8.90
2011,07,22,06,48,8.90
2011,07,22,06,49,8.90
2011,07,22,06,50,8.90
2011,07,22,06,51,8.90
2011,07,22,06,52,8.90
2011,07,22,06,53,8.90
2011,07,22,06,54,8.90
2011,07,22,06,55,8.90
2011,07,22,06,56,8.90
2011,07,22,06,57,8.90
2011,07,22,06,58,8.90
2011,07,22,06,59,9.00
2011,07,22,07,00,9.00
2011,07,22,07,01,9.00
2011,07,22,07,02,9.00
2011,07,22,07,03,9.00
2011,07,22,07,04,9.00
2011,07,22,07,05,9.00
2011,07,22,07,06,9.10
2011,07,22,07,07,9.10
2011,07,22,07,08,9.10
2011,07,22,07,09,9.10
2011,07,22,07,10,9.10
2011,07,22,07,11,9.20
2011,07,22,07,12,9.20
2011,07,22,07,13,9.20
2011,07,22,07,14,9.20
2011,07,22,07,15,9.20
2011,07,22,07,16,9.30
2011,07,22,07,17,9.30
2011,07,22,07,18,9.30
2011,07,22,07,19,9.30
2011,07,22,07,20,9.40
2011,07,22,07,21,9.40
2011,07,22,07,22,9.40
2011,07,22,07,23,9.50
2011,07,22,07,24,9.50
2011,07,22,07,25,9.60
2011,07,22,07,26,9.60
2011,07,22,07,27,9.60
2011,07,22,07,28,9.60
2011,07,22,07,29,9.60
2011,07,22,07,30,9.70
2011,07,22,07,31,9.70
2011,07,22,07,32,9.70
2011,07,22,07,33,9.70
2011,07,22,07,34,9.70
2011,07,22,07,35,9.80
2011,07,22,07,36,9.80
2011,07,22,07,37,9.80
2011,07,22,07,38,9.80
2011,07,22,07,39,9.80
2011,07,22,07,40,9.80
2011,07,22,07,41,9.80
2011,07,22,07,42,9.90
2011,07,22,07,43,9.90
2011,07,22,07,44,9.90
2011,07,22,07,45,9.90
2011,07,22,07,46,9.90
2011,07,22,07,47,9.90
2011,07,22,07,48,10.00
2011,07,22,07,49,10.00
2011,07,22,07,50,10.00
2011,07,22,07,51,10.10
2011,07,22,07,52,10.10
2011,07,22,07,53,10.10
2011,07,22,07,54,10.10
2011,07,22,07,55,10.10
2011,07,22,07,56,10.20
2011,07,22,07,57,10.20
2011,07,22,07,58,10.20
2011,07,22,07,59,10.20
2011,07,22,08,00,10.20
2011,07,22,08,01,10.30
2011,07,22,08,02,10.30
2011,07,22,08,03,10.30
2011,07,22,08,04,10.30
2011,07,22,08,05,10.30
2011,07,22,08,06,10.40
2011,07,22,08,07,10.40
2011,07,22,08,08,10.40
2011,07,22,08,09,10.50
2011,07,22,08,10,10.50
2011,07,22,08,11,10.50
2011,07,22,08,12,10.60
2011,07,22,08,13,10.60
2011,07,22,08,14,10.60
2011,07,22,08,15,10.60
2011,07,22,08,16,10.70
2011,07,22,08,17,10.70
2011,07,22,08,18,10.70
2011,07,22,08,19,10.70
2011,07,22,08,20,10.80
2011,07,22,08,21,10.80
2011,07,22,08,22,10.80
2011,07,22,08,23,10.80
2011,07,22,08,24,10.80
2011,07,22,08,25,10.90
2011,07,22,08,26,10.90
2011,07,22,08,27,11.00
2011,07,22,08,28,11.00
2011,07,22,08,29,11.10
2011,07,22,08,30,11.10
2011,07,22,08,31,11.10
2011,07,22,08,32,11.20
2011,07,22,08,33,11.20
2011,07,22,08,34,11.30
2011,07,22,08,35,11.30
2011,07,22,08,36,11.30
2011,07,22,08,37,11.40
2011,07,22,08,38,11.50
2011,07,22,08,39,11.50
2011,07,22,08,40,11.60
2011,07,22,08,41,11.60
2011,07,22,08,42,11.70
2011,07,22,08,43,11.70
2011,07,22,08,44,11.80
2011,07,22,08,45,11.80
2011,07,22,08,46,11.90
2011,07,22,08,47,11.90
2011,07,22,08,48,12.00
2011,07,22,08,49,12.00
2011,07,22,08,50,12.10
2011,07,22,08,51,12.20
2011,07,22,08,52,12.20
2011,07,22,08,53,12.20
2011,07,22,08,54,12.30
2011,07,22,08,55,12.30
2011,07,22,08,56,12.40
2011,07,22,08,57,12.40
2011,07,22,08,58,12.40
2011,07,22,08,59,12.50
2011,07,22,09,00,12.50
2011,07,22,09,01,12.60
2011,07,22,09,02,12.60
2011,07,22,09,03,12.60
2011,07,22,09,04,12.70
2011,07,22,09,05,12.70
2011,07,22,09,06,12.70
2011,07,22,09,07,12.80
2011,07,22,09,08,12.80
2011,07,22,09,09,12.80
2011,07,22,09,10,12.80
2011,07,22,09,11,12.80
2011,07,22,09,12,12.80
2011,07,22,09,13,12.80
2011,07,22,09,14,12.90
2011,07,22,09,15,12.90
2011,07,22,09,16,12.90
2011,07,22,09,17,12.90
2011,07,22,09,18,12.90
2011,07,22,09,19,13.00
2011,07,22,09,20,13.00
2011,07,22,09,21,13.00
2011,07,22,09,22,13.00
2011,07,22,09,23,13.00
2011,07,22,09,24,13.10
2011,07,22,09,25,13.10
2011,07,22,09,26,13.10
2011,07,22,09,27,13.10
2011,07,22,09,28,13.10
2011,07,22,09,29,13.10
2011,07,22,09,30,13.10
2011,07,22,09,31,13.20
2011,07,22,09,32,13.20
2011,07,22,09,33,13.20
2011,07,22,09,34,13.20
2011,07,22,09,35,13.20
2011,07,22,09,36,13.20
2011,07,22,09,37,13.20
2011,07,22,09,38,13.30
2011,07,22,09,39,13.30
2011,07,22,09,40,13.30
2011,07,22,09,41,13.30
2011,07,22,09,42,13.40
2011,07,22,09,43,13.40
2011,07,22,09,44,13.50
2011,07,22,09,45,13.60
2011,07,22,09,46,13.60
2011,07,22,09,47,13.70
2011,07,22,09,48,13.70
2011,07,22,09,49,13.70
2011,07,22,09,50,13.80
2011,07,22,09,51,13.80
2011,07,22,09,52,13.80
2011,07,22,09,53,13.80
2011,07,22,09,54,13.90
2011,07,22,09,55,13.90
2011,07,22,09,56,13.90
2011,07,22,09,57,13.90
2011,07,22,09,58,14.00
2011,07,22,09,59,14.00
2011,07,22,10,00,14.10
2011,07,22,10,01,14.10
2011,07,22,10,02,14.10
2011,07,22,10,03,14.20
2011,07,22,10,04,14.20
2011,07,22,10,05,14.30
2011,07,22,10,06,14.30
2011,07,22,10,07,14.40
2011,07,22,10,08,14.50
2011,07,22,10,09,14.60
2011,07,22,10,10,14.70
2011,07,22,10,11,14.80
2011,07,22,10,12,14.90
2011,07,22,10,13,15.00
2011,07,22,10,14,15.10
2011,07,22,10,15,15.30
2011,07,22,10,16,15.60
2011,07,22,10,17,15.80
2011,07,22,10,18,15.90
2011,07,22,10,19,16.10
2011,07,22,10,20,16.30
2011,07,22,10,21,16.40
2011,07,22,10,22,16.50
2011,07,22,10,23,16.50
2011,07,22,10,24,16.60
2011,07,22,10,25,16.60
2011,07,22,10,26,16.60
2011,07,22,10,27,16.60
2011,07,22,10,28,16.60
2011,07,22,10,29,16.60
2011,07,22,10,30,16.60
2011,07,22,10,31,16.60
2011,07,22,10,32,16.60
2011,07,22,10,33,16.60
2011,07,22,10,34,16.60
2011,07,22,10,35,16.50
2011,07,22,10,36,16.50
2011,07,22,10,37,16.50
2011,07,22,10,38,16.50
2011,07,22,10,39,16.50
2011,07,22,10,40,16.50
2011,07,22,10,41,16.50
2011,07,22,10,42,16.50
2011,07,22,10,43,16.50
2011,07,22,10,44,16.50
2011,07,22,10,45,16.50
2011,07,22,10,46,16.60
2011,07,22,10,47,16.60
2011,07,22,10,48,16.60
2011,07,22,10,49,16.60
2011,07,22,10,50,16.60
2011,07,22,10,51,16.60
2011,07,22,10,52,16.60
2011,07,22,10,53,16.60
2011,07,22,10,54,16.60
2011,07,22,10,55,16.60
2011,07,22,10,56,16.60
2011,07,22,10,57,16.70
2011,07,22,10,58,16.70
2011,07,22,10,59,16.70
2011,07,22,11,00,16.70
2011,07,22,11,01,16.70
2011,07,22,11,02,16.70
2011,07,22,11,03,16.70
2011,07,22,11,04,16.80
2011,07,22,11,05,16.80
2011,07,22,11,06,16.80
2011,07,22,11,07,16.80
2011,07,22,11,08,16.80
2011,07,22,11,09,16.80
2011,07,22,11,10,16.80
2011,07,22,11,11,16.90
2011,07,22,11,12,16.90
2011,07,22,11,13,16.90
2011,07,22,11,14,16.90
2011,07,22,11,15,16.90
2011,07,22,11,16,16.90
2011,07,22,11,17,17.00
2011,07,22,11,18,17.00
2011,07,22,11,19,17.00
2011,07,22,11,20,17.00
2011,07,22,11,21,17.10
2011,07,22,11,22,17.10
2011,07,22,11,23,17.10
2011,07,22,11,24,17.10
2011,07,22,11,25,17.00
2011,07,22,11,26,17.00
2011,07,22,11,27,16.90
2011,07,22,11,28,16.90
2011,07,22,11,29,16.90
2011,07,22,11,30,16.90
2011,07,22,11,31,16.90
2011,07,22,11,32,16.90
2011,07,22,11,33,16.90
2011,07,22,11,34,16.80
2011,07,22,11,35,16.80
2011,07,22,11,36,16.80
2011,07,22,11,37,16.80
2011,07,22,11,38,16.80
2011,07,22,11,39,16.80
2011,07,22,11,40,16.80
2011,07,22,11,41,16.80
2011,07,22,11,42,16.80
2011,07,22,11,43,16.80
2011,07,22,11,44,16.80
2011,07,22,11,45,16.80
2011,07,22,11,46,16.80
2011,07,22,11,47,16.80
2011,07,22,11,48,16.80
2011,07,22,11,49,16.80
2011,07,22,11,50,16.80
2011,07,22,11,51,16.70
2011,07,22,11,52,16.70
2011,07,22,11,53,16.70
2011,07,22,11,54,16.70
2011,07,22,11,55,16.70
2011,07,22,11,56,16.70
2011,07,22,11,57,16.70
2011,07,22,11,58,16.70
2011,07,22,11,59,16.70
2011,07,22,12,00,16.70
2011,07,22,12,01,16.70
2011,07,22,12,02,16.70
2011,07,22,12,03,16.70
2011,07,22,12,04,16.70
2011,07,22,12,05,16.70
2011,07,22,12,06,16.80
2011,07,22,12,07,16.80
2011,07,22,12,08,16.80
2011,07,22,12,09,16.80
2011,07,22,12,10,16.80
2011,07,22,12,11,16.80
2011,07,22,12,12,16.90
2011,07,22,12,13,16.90
2011,07,22,12,14,16.90
2011,07,22,12,15,17.00
2011,07,22,12,16,17.00
2011,07,22,12,17,17.10
2011,07,22,12,18,17.10
2011,07,22,12,19,17.10
2011,07,22,12,20,17.20
2011,07,22,12,21,17.20
2011,07,22,12,22,17.20
2011,07,22,12,23,17.20
2011,07,22,12,24,17.20
2011,07,22,12,25,17.20
2011,07,22,12,26,17.20
2011,07,22,12,27,17.20
2011,07,22,12,28,17.20
2011,07,22,12,29,17.20
2011,07,22,12,30,17.20
2011,07,22,12,31,17.20
2011,07,22,12,32,17.20
2011,07,22,12,33,17.20
2011,07,22,12,34,17.20
2011,07,22,12,35,17.20
2011,07,22,12,36,17.20
2011,07,22,12,37,17.20
2011,07,22,12,38,17.20
2011,07,22,12,39,17.20
2011,07,22,12,40,17.20
2011,07,22,12,41,17.20
2011,07,22,12,42,17.20
2011,07,22,12,43,17.20
2011,07,22,12,44,17.20
2011,07,22,12,45,17.20
2011,07,22,12,46,17.20
2011,07,22,12,47,17.20
2011,07,22,12,48,17.20
2011,07,22,12,49,17.20
2011,07,22,12,50,17.20
2011,07,22,12,51,17.20
2011,07,22,12,52,17.20
2011,07,22,12,53,17.20
2011,07,22,12,54,17.20
2011,07,22,12,55,17.20
2011,07,22,12,56,17.20
2011,07,22,12,57,17.20
2011,07,22,12,58,17.20
2011,07,22,12,59,17.20
2011,07,22,13,00,17.30
2011,07,22,13,01,17.30
2011,07,22,13,02,17.30
2011,07,22,13,03,17.30
2011,07,22,13,04,17.30
2011,07,22,13,05,17.30
2011,07,22,13,06,17.40
2011,07,22,13,07,17.40
2011,07,22,13,08,17.40
2011,07,22,13,09,17.40
2011,07,22,13,10,17.40
2011,07,22,13,11,17.40
2011,07,22,13,12,17.40
2011,07,22,13,13,17.40
2011,07,22,13,14,17.40
2011,07,22,13,15,17.40
2011,07,22,13,16,17.40
2011,07,22,13,17,17.40
2011,07,22,13,18,17.40
2011,07,22,13,19,17.50
2011,07,22,13,20,17.50
2011,07,22,13,21,17.50
2011,07,22,13,22,17.50
2011,07,22,13,23,17.50
2011,07,22,13,24,17.50
2011,07,22,13,25,17.50
2011,07,22,13,26,17.50
2011,07,22,13,27,17.40
2011,07,22,13,28,17.40
2011,07,22,13,29,17.40
2011,07,22,13,30,17.40
2011,07,22,13,31,17.40
2011,07,22,13,32,17.30
2011,07,22,13,33,17.30
2011,07,22,13,34,17.30
2011,07,22,13,35,17.30
2011,07,22,13,36,17.30
2011,07,22,13,37,17.30
2011,07,22,13,38,17.30
2011,07,22,13,39,17.30
2011,07,22,13,40,17.30
2011,07,22,13,41,17.40
2011,07,22,13,42,17.40
2011,07,22,13,43,17.40
2011,07,22,13,44,17.40
2011,07,22,13,45,17.40
2011,07,22,13,46,17.40
2011,07,22,13,47,17.50
2011,07,22,13,48,17.50
2011,07,22,13,49,17.50
2011,07,22,13,50,17.50
2011,07,22,13,51,17.50
2011,07,22,13,52,17.50
2011,07,22,13,53,17.50
2011,07,22,13,54,17.50
2011,07,22,13,55,17.60
2011,07,22,13,56,17.60
2011,07,22,13,57,17.60
2011,07,22,13,58,17.60
2011,07,22,13,59,17.60
2011,07,22,14,00,17.60
2011,07,22,14,01,17.60
2011,07,22,14,02,17.60
2011,07,22,14,03,17.60
2011,07,22,14,04,17.60
2011,07,22,14,05,17.60
2011,07,22,14,06,17.60
2011,07,22,14,07,17.60
2011,07,22,14,08,17.70
2011,07,22,14,09,17.70
2011,07,22,14,10,17.70
2011,07,22,14,11,17.80
2011,07,22,14,12,17.80
2011,07,22,14,13,17.90
2011,07,22,14,14,17.90
2011,07,22,14,15,17.90
2011,07,22,14,16,17.90
2011,07,22,14,17,17.90
2011,07,22,14,18,17.90
2011,07,22,14,19,17.90
2011,07,22,14,20,17.90
2011,07,22,14,21,17.90
2011,07,22,14,22,17.90
2011,07,22,14,23,17.90
2011,07,22,14,24,17.90
2011,07,22,14,25,17.90
2011,07,22,14,26,17.90
2011,07,22,14,27,17.90
2011,07,22,14,28,17.90
2011,07,22,14,29,17.90
2011,07,22,14,30,17.90
2011,07,22,14,31,17.90
2011,07,22,14,32,17.90
2011,07,22,14,33,18.00
2011,07,22,14,34,18.00
2011,07,22,14,35,18.10
2011,07,22,14,36,18.10
2011,07,22,14,37,18.10
2011,07,22,14,38,18.10
2011,07,22,14,39,18.10
2011,07,22,14,40,18.20
2011,07,22,14,41,18.20
2011,07,22,14,42,18.20
2011,07,22,14,43,18.20
2011,07,22,14,44,18.20
2011,07,22,14,45,18.20
2011,07,22,14,46,18.20
2011,07,22,14,47,18.30
2011,07,22,14,48,18.30
2011,07,22,14,49,18.30
2011,07,22,14,50,18.40
2011,07,22,14,51,18.40
2011,07,22,14,52,18.50
2011,07,22,14,53,18.60
2011,07,22,14,54,18.70
2011,07,22,14,55,18.80
2011,07,22,14,56,18.80
2011,07,22,14,57,18.90
2011,07,22,14,58,19.00
2011,07,22,14,59,19.00
2011,07,22,15,00,19.10
2011,07,22,15,01,19.20
2011,07,22,15,02,19.20
2011,07,22,15,03,19.20
2011,07,22,15,04,19.20
2011,07,22,15,05,19.20
2011,07,22,15,06,19.10
2011,07,22,15,07,19.00
2011,07,22,15,08,18.90
2011,07,22,15,09,18.90
2011,07,22,15,10,18.90
2011,07,22,15,11,18.90
2011,07,22,15,12,18.90
2011,07,22,15,13,18.90
2011,07,22,15,14,18.90
2011,07,22,15,15,18.80
2011,07,22,15,16,18.80
2011,07,22,15,17,18.80
2011,07,22,15,18,18.80
2011,07,22,15,19,18.80
2011,07,22,15,20,18.90
2011,07,22,15,21,18.90
2011,07,22,15,22,18.90
2011,07,22,15,23,18.90
2011,07,22,15,24,18.90
2011,07,22,15,25,18.90
2011,07,22,15,26,18.90
2011,07,22,15,27,18.90
2011,07,22,15,28,18.90
2011,07,22,15,29,19.00
2011,07,22,15,30,19.10
2011,07,22,15,31,19.10
2011,07,22,15,32,19.10
2011,07,22,15,33,19.20
2011,07,22,15,34,19.20
2011,07,22,15,35,19.30
2011,07,22,15,36,19.30
2011,07,22,15,37,19.30
2011,07,22,15,38,19.30
2011,07,22,15,39,19.30
2011,07,22,15,40,19.30
2011,07,22,15,41,19.40
2011,07,22,15,42,19.40
2011,07,22,15,43,19.40
2011,07,22,15,44,19.50
2011,07,22,15,45,19.50
2011,07,22,15,46,19.50
2011,07,22,15,47,19.60
2011,07,22,15,48,19.60
2011,07,22,15,49,19.60
2011,07,22,15,50,19.70
2011,07,22,15,51,19.70
2011,07,22,15,52,19.70
2011,07,22,15,53,19.70
2011,07,22,15,54,19.70
2011,07,22,15,55,19.70
2011,07,22,15,56,19.60
2011,07,22,15,57,19.60
2011,07,22,15,58,19.60
2011,07,22,15,59,19.50
2011,07,22,16,00,19.50
2011,07,22,16,01,19.50
2011,07,22,16,02,19.50
2011,07,22,16,03,19.50
2011,07,22,16,04,19.50
2011,07,22,16,05,19.50
2011,07,22,16,06,19.50
2011,07,22,16,07,19.50
2011,07,22,16,08,19.40
2011,07,22,16,09,19.40
2011,07,22,16,10,19.40
2011,07,22,16,11,19.40
2011,07,22,16,12,19.40
2011,07,22,16,13,19.30
2011,07,22,16,14,19.30
2011,07,22,16,15,19.30
2011,07,22,16,16,19.30
2011,07,22,16,17,19.30
2011,07,22,16,18,19.30
2011,07,22,16,19,19.30
2011,07,22,16,20,19.30
2011,07,22,16,21,19.30
2011,07,22,16,22,19.30
2011,07,22,16,23,19.30
2011,07,22,16,24,19.30
2011,07,22,16,25,19.30
2011,07,22,16,26,19.30
2011,07,22,16,27,19.30
2011,07,22,16,28,19.30
2011,07,22,16,29,19.40
2011,07,22,16,30,19.50
2011,07,22,16,31,19.60
2011,07,22,16,32,19.60
2011,07,22,16,33,19.60
2011,07,22,16,34,19.60
2011,07,22,16,35,19.70
2011,07,22,16,36,19.80
2011,07,22,16,37,19.80
2011,07,22,16,38,19.90
2011,07,22,16,39,20.00
2011,07,22,16,40,20.10
2011,07,22,16,41,20.20
2011,07,22,16,42,20.40
2011,07,22,16,43,20.50
2011,07,22,16,44,20.70
2011,07,22,16,45,20.80
2011,07,22,16,46,21.00
2011,07,22,16,47,21.10
2011,07,22,16,48,21.30
2011,07,22,16,49,21.50
2011,07,22,16,50,21.60
2011,07,22,16,51,21.70
2011,07,22,16,52,21.70
2011,07,22,16,53,21.70
2011,07,22,16,54,21.70
2011,07,22,16,55,21.60
2011,07,22,16,56,21.50
2011,07,22,16,57,21.40
2011,07,22,16,58,21.30
2011,07,22,16,59,21.20
2011,07,22,17,00,21.10
2011,07,22,17,01,21.00
2011,07,22,17,02,20.90
2011,07,22,17,03,20.80
2011,07,22,17,04,20.80
2011,07,22,17,05,20.80
2011,07,22,17,06,20.80
2011,07,22,17,07,20.80
2011,07,22,17,08,20.90
2011,07,22,17,09,20.90
2011,07,22,17,10,21.00
2011,07,22,17,11,21.00
2011,07,22,17,12,21.00
2011,07,22,17,13,20.90
2011,07,22,17,14,20.90
2011,07,22,17,15,20.90
2011,07,22,17,16,20.80
2011,07,22,17,17,20.80
2011,07,22,17,18,20.70
2011,07,22,17,19,20.70
2011,07,22,17,20,20.60
2011,07,22,17,21,20.50
2011,07,22,17,22,20.40
2011,07,22,17,23,20.30
2011,07,22,17,24,20.30
2011,07,22,17,25,20.20
2011,07,22,17,26,20.20
2011,07,22,17,27,20.20
2011,07,22,17,28,20.20
2011,07,22,17,29,20.20
2011,07,22,17,30,20.20
2011,07,22,17,31,20.20
2011,07,22,17,32,20.30